Home   Weather   Bath   Past weeks

Flag for United Kingdom Past Weather in Bath, England, United Kingdom — Yesterday and Last 2 Weeks

Now
46 °F

Cool.


Feels Like: 42 °F
Forecast: N/A
Wind: 8 mph from Southwest

Location: Bristol / Lulsgate

Current Time: Jan 24, 2017 at 3:28:47 pm

Latest Report: Jan 24, 2017 at 2:50 pm


Visibility: N/A

Pressure: 30.30 "Hg

Humidity: 76%

Dew Point: 39 °F

Location of BathLocation

Past Weather in Bath — Graph

°F

Bath Temperature Yesterday

Maximum temperature yesterday: 46 °F (at 3:20 pm)
Minimum temperature yesterday: 37 °F (at 12:20 am)
Average temperature yesterday: 40 °F

High & Low Weather Summary for the Past Weeks

 TemperatureHumidityPressure
High48 °F (Jan 11, 1:50 am)100% (Jan 9, 2:20 pm)30.66 "Hg (Jan 9, 2:20 pm)
Low23 °F (Jan 21, 5:20 am)61% (Jan 11, 2:50 pm)29.45 "Hg (Jan 12, 2:20 pm)
Average39 °F88%30.23 "Hg
* Reported Jan 9 2:20 pm — Jan 24 2:20 pm, Bath, Weather by CustomWeather, © 2017

Note: Actual official high and low records may vary slightly from our data, if they occured in-between our weather recording intervals... More about our weather records

Advertising

Bath Weather History for the Previous 24 Hours

Scroll right to see more
 ConditionsComfort  
Time TempWeatherWind HumidityBarometerVisibility
2:20 pm
Tue, Jan 24
46 °FCool.7 mph76%30.33 "HgN/A
1:50 pm46 °FCool.9 mph76%30.33 "HgN/A
1:20 pm46 °FCool.8 mph82%30.33 "HgN/A
12:50 pm46 °FCool.8 mph82%30.33 "HgN/A
12:20 pm46 °FPassing clouds.8 mph76%30.33 "HgN/A
11:50 am45 °FOvercast.8 mph81%30.33 "HgN/A
11:20 am45 °FPartly sunny.7 mph81%30.36 "HgN/A
10:50 am43 °FScattered clouds.6 mph87%30.36 "HgN/A
10:20 am41 °FQuite cool.6 mph87%30.33 "HgN/A
9:50 am41 °FQuite cool.7 mph87%30.33 "HgN/A
9:20 am39 °FChilly.5 mph93%30.33 "HgN/A
8:50 am37 °FChilly.5 mph93%30.33 "HgN/A
8:20 am37 °FChilly.5 mph93%30.30 "HgN/A
7:50 am36 °FChilly.5 mph93%30.30 "HgN/A
7:20 am37 °FChilly.5 mph93%30.30 "HgN/A
6:50 am37 °FChilly.5 mph93%30.30 "HgN/A
6:20 am36 °FChilly.6 mph93%30.27 "HgN/A
5:50 am36 °FChilly.5 mph93%30.27 "HgN/A
5:20 am36 °FChilly.6 mph93%30.30 "HgN/A
4:50 am36 °FChilly.3 mph93%30.30 "HgN/A
4:20 am37 °FChilly.3 mph87%30.30 "HgN/A
3:50 am36 °FChilly.5 mph93%30.30 "HgN/A
3:20 am37 °FChilly.6 mph87%30.30 "HgN/A
2:50 am36 °FChilly.6 mph93%30.30 "HgN/A
2:20 am36 °FChilly.7 mph93%30.30 "HgN/A
1:50 am37 °FChilly.6 mph87%30.30 "HgN/A
1:20 am37 °FChilly.6 mph87%30.30 "HgN/A
12:50 am37 °FChilly.6 mph93%30.30 "HgN/A
12:20 am37 °FChilly.6 mph93%30.30 "HgN/A
11:50 pm
Mon, Jan 23
37 °FChilly.7 mph93%30.30 "HgN/A
11:20 pm37 °FChilly.6 mph87%30.30 "HgN/A
10:50 pm37 °FChilly.7 mph87%30.30 "HgN/A
10:20 pm37 °FChilly.7 mph87%30.33 "Hg6 mi
9:50 pm37 °FChilly.6 mph87%30.33 "HgN/A
9:20 pm37 °FChilly.7 mph87%30.33 "HgN/A
8:50 pm39 °FChilly.5 mph81%30.33 "HgN/A
8:20 pm39 °FChilly.5 mph87%30.30 "HgN/A
7:50 pm39 °FChilly.6 mph87%30.33 "HgN/A
7:20 pm39 °FChilly.6 mph81%30.33 "HgN/A
6:50 pm41 °FQuite cool.5 mph76%30.33 "HgN/A
6:20 pm39 °FChilly.5 mph81%30.33 "HgN/A
5:50 pm37 °FChilly.3 mph81%30.33 "HgN/A
5:20 pm41 °FQuite cool.3 mph70%30.33 "HgN/A
4:50 pm41 °FQuite cool.3 mph70%30.33 "HgN/A
4:20 pm45 °FQuite cool.3 mph66%30.33 "HgN/A
3:50 pm45 °FQuite cool.3 mph66%30.30 "HgN/A
3:20 pm46 °FCool.2 mph62%30.30 "HgN/A
Weather by CustomWeather, © 2017

See weather overviewHow to use our weather pages